Time,TemperatureF,DewpointF,PressureIn,WindDirection,WindDirectionDegrees,WindSpeedMPH,WindSpeedGustMPH,Humidity,HourlyPrecipIn,Conditions,Clouds,dailyrainin,SoftwareType,DateUTC
2013-02-17 00:00:00,33.0,20.6,32.44,West,265,10.0,15.0,60,0.00,,,0.00,VWS V13.01,2013-02-17 05:00:00,
2013-02-17 00:05:00,32.9,20.5,32.44,WSW,252,10.0,12.0,60,0.00,,,0.00,VWS V13.01,2013-02-17 05:05:00,
2013-02-17 00:10:00,32.7,20.4,32.44,WNW,298,5.0,13.0,60,0.00,,,0.00,VWS V13.01,2013-02-17 05:10:00,
2013-02-17 00:15:00,32.6,20.7,32.44,WNW,292,9.0,16.0,61,0.00,,,0.00,VWS V13.01,2013-02-17 05:15:00,
2013-02-17 00:20:00,32.5,20.6,32.44,WNW,290,3.0,10.0,61,0.00,,,0.00,VWS V13.01,2013-02-17 05:20:00,
2013-02-17 00:25:00,32.4,20.5,32.44,West,272,3.0,12.0,61,0.00,,,0.00,VWS V13.01,2013-02-17 05:25:00,
2013-02-17 00:30:00,32.3,20.4,32.44,WSW,251,3.0,10.0,61,0.00,,,0.00,VWS V13.01,2013-02-17 05:30:00,
2013-02-17 00:35:00,32.2,20.3,32.44,WNW,292,9.0,12.0,61,0.00,,,0.00,VWS V13.01,2013-02-17 05:35:00,
2013-02-17 00:40:00,32.2,20.3,32.44,West,263,9.0,12.0,61,0.00,,,0.00,VWS V13.01,2013-02-17 05:40:00,
2013-02-17 00:45:00,32.1,20.2,32.44,West,281,9.0,15.0,61,0.00,,,0.00,VWS V13.01,2013-02-17 05:45:00,
2013-02-17 00:50:00,32.0,20.5,32.44,SW,221,6.0,12.0,62,0.00,,,0.00,VWS V13.01,2013-02-17 05:50:00,
2013-02-17 00:55:00,32.0,20.5,32.44,West,278,4.0,11.0,62,0.00,,,0.00,VWS V13.01,2013-02-17 05:55:00,
2013-02-17 01:00:00,32.0,20.5,32.44,WSW,237,4.0,12.0,62,0.00,,,0.00,VWS V13.01,2013-02-17 06:00:00,
2013-02-17 01:05:00,31.9,20.4,32.44,WNW,290,6.0,14.0,62,0.00,,,0.00,VWS V13.01,2013-02-17 06:05:00,
2013-02-17 01:10:00,31.8,20.7,32.44,West,267,7.0,13.0,63,0.00,,,0.00,VWS V13.01,2013-02-17 06:10:00,
2013-02-17 01:15:00,31.7,20.6,32.44,WSW,254,2.0,12.0,63,0.00,,,0.00,VWS V13.01,2013-02-17 06:15:00,
2013-02-17 01:20:00,31.7,20.6,32.44,West,275,2.0,11.0,63,0.00,,,0.00,VWS V13.01,2013-02-17 06:20:00,
2013-02-17 01:25:00,31.6,20.5,32.44,West,275,11.0,13.0,63,0.00,,,0.00,VWS V13.01,2013-02-17 06:25:00,
2013-02-17 01:30:00,31.6,20.5,32.44,WSW,252,5.0,12.0,63,0.00,,,0.00,VWS V13.01,2013-02-17 06:30:00,
2013-02-17 01:35:00,31.6,20.5,32.44,WSW,253,3.0,12.0,63,0.00,,,0.00,VWS V13.01,2013-02-17 06:35:00,
2013-02-17 01:40:00,31.5,20.4,32.44,WSW,252,13.0,14.0,63,0.00,,,0.00,VWS V13.01,2013-02-17 06:40:00,
2013-02-17 01:45:00,31.3,20.2,32.44,West,273,3.0,11.0,63,0.00,,,0.00,VWS V13.01,2013-02-17 06:45:00,
2013-02-17 01:50:00,31.5,20.7,32.44,WSW,241,5.0,12.0,64,0.00,,,0.00,VWS V13.01,2013-02-17 06:50:00,
2013-02-17 01:55:00,31.1,20.0,32.44,WSW,256,4.0,13.0,63,0.00,,,0.00,VWS V13.01,2013-02-17 06:55:00,
2013-02-17 02:00:00,31.1,20.4,32.44,WSW,256,6.0,12.0,64,0.00,,,0.00,VWS V13.01,2013-02-17 07:00:00,
2013-02-17 02:05:00,31.1,20.0,32.44,WNW,299,5.0,15.0,63,0.00,,,0.00,VWS V13.01,2013-02-17 07:05:00,
2013-02-17 02:10:00,31.0,20.3,32.44,West,260,1.0,10.0,64,0.00,,,0.00,VWS V13.01,2013-02-17 07:10:00,
2013-02-17 02:15:00,30.9,19.8,32.44,West,276,4.0,15.0,63,0.00,,,0.00,VWS V13.01,2013-02-17 07:15:00,
2013-02-17 02:20:00,30.8,20.1,32.44,West,276,6.0,12.0,64,0.00,,,0.00,VWS V13.01,2013-02-17 07:20:00,
2013-02-17 02:25:00,30.8,20.4,32.44,West,277,0.0,7.0,65,0.00,,,0.00,VWS V13.01,2013-02-17 07:25:00,
2013-02-17 02:30:00,30.7,20.0,32.44,West,273,6.0,12.0,64,0.00,,,0.00,VWS V13.01,2013-02-17 07:30:00,
2013-02-17 02:35:00,30.6,19.9,32.44,West,261,6.0,13.0,64,0.00,,,0.00,VWS V13.01,2013-02-17 07:35:00,
2013-02-17 02:40:00,30.6,20.2,32.44,WSW,254,2.0,12.0,65,0.00,,,0.00,VWS V13.01,2013-02-17 07:40:00,
2013-02-17 02:45:00,30.6,19.9,32.44,WSW,258,2.0,12.0,64,0.00,,,0.00,VWS V13.01,2013-02-17 07:45:00,
2013-02-17 02:50:00,30.5,19.8,32.44,West,267,4.0,14.0,64,0.00,,,0.00,VWS V13.01,2013-02-17 07:50:00,
2013-02-17 02:55:00,30.4,20.1,32.44,SW,224,3.0,13.0,65,0.00,,,0.00,VWS V13.01,2013-02-17 07:55:00,
2013-02-17 03:00:00,30.3,20.0,32.44,West,276,10.0,13.0,65,0.00,,,0.00,VWS V13.01,2013-02-17 08:00:00,
2013-02-17 03:05:00,30.2,19.9,32.44,West,276,5.0,11.0,65,0.00,,,0.00,VWS V13.01,2013-02-17 08:05:00,
2013-02-17 03:10:00,30.2,19.9,32.44,West,280,4.0,15.0,65,0.00,,,0.00,VWS V13.01,2013-02-17 08:10:00,
2013-02-17 03:15:00,30.2,19.9,32.44,West,270,6.0,12.0,65,0.00,,,0.00,VWS V13.01,2013-02-17 08:15:00,
2013-02-17 03:20:00,30.1,19.8,32.44,SW,230,13.0,13.0,65,0.00,,,0.00,VWS V13.01,2013-02-17 08:20:00,
2013-02-17 03:25:00,30.0,19.7,32.44,West,278,3.0,11.0,65,0.00,,,0.00,VWS V13.01,2013-02-17 08:25:00,
2013-02-17 03:30:00,29.9,19.6,32.44,SW,219,3.0,11.0,65,0.00,,,0.00,VWS V13.01,2013-02-17 08:30:00,
2013-02-17 03:35:00,30.0,19.3,32.44,WSW,254,3.0,13.0,64,0.00,,,0.00,VWS V13.01,2013-02-17 08:35:00,
2013-02-17 03:40:00,29.9,19.6,32.44,West,263,8.0,10.0,65,0.00,,,0.00,VWS V13.01,2013-02-17 08:40:00,
2013-02-17 03:45:00,29.9,19.2,32.44,WSW,248,6.0,11.0,64,0.00,,,0.00,VWS V13.01,2013-02-17 08:45:00,
2013-02-17 03:50:00,29.8,18.8,32.44,West,263,6.0,11.0,63,0.00,,,0.00,VWS V13.01,2013-02-17 08:50:00,
2013-02-17 03:55:00,29.8,19.1,32.44,NW,316,5.0,13.0,64,0.00,,,0.00,VWS V13.01,2013-02-17 08:55:00,
2013-02-17 04:00:00,29.9,19.2,32.44,WSW,254,3.0,13.0,64,0.00,,,0.00,VWS V13.01,2013-02-17 09:00:00,
2013-02-17 04:05:00,29.8,18.8,32.44,SW,235,11.0,11.0,63,0.00,,,0.00,VWS V13.01,2013-02-17 09:05:00,
2013-02-17 04:10:00,29.6,18.6,32.44,West,261,5.0,10.0,63,0.00,,,0.00,VWS V13.01,2013-02-17 09:10:00,
2013-02-17 04:15:00,29.6,18.6,32.44,West,263,3.0,9.0,63,0.00,,,0.00,VWS V13.01,2013-02-17 09:15:00,
2013-02-17 04:20:00,29.6,17.8,32.44,SW,221,4.0,14.0,61,0.00,,,0.00,VWS V13.01,2013-02-17 09:20:00,
2013-02-17 04:25:00,29.6,18.2,32.44,WSW,254,5.0,13.0,62,0.00,,,0.00,VWS V13.01,2013-02-17 09:25:00,
2013-02-17 04:30:00,29.5,17.7,32.44,NW,321,3.0,14.0,61,0.00,,,0.00,VWS V13.01,2013-02-17 09:30:00,
2013-02-17 04:35:00,29.4,18.0,32.44,WNW,286,5.0,11.0,62,0.00,,,0.00,VWS V13.01,2013-02-17 09:35:00,
2013-02-17 04:40:00,29.4,18.0,32.44,WSW,241,2.0,11.0,62,0.00,,,0.00,VWS V13.01,2013-02-17 09:40:00,
2013-02-17 04:45:00,29.4,18.4,32.44,WSW,254,7.0,10.0,63,0.00,,,0.00,VWS V13.01,2013-02-17 09:45:00,
2013-02-17 04:50:00,29.2,17.8,32.44,West,271,4.0,14.0,62,0.00,,,0.00,VWS V13.01,2013-02-17 09:50:00,
2013-02-17 04:55:00,29.2,18.2,32.44,SW,215,0.0,12.0,63,0.00,,,0.00,VWS V13.01,2013-02-17 09:55:00,
2013-02-17 05:00:00,29.3,18.3,32.44,West,271,1.0,10.0,63,0.00,,,0.00,VWS V13.01,2013-02-17 10:00:00,
2013-02-17 05:05:00,29.2,18.5,32.44,West,261,0.0,9.0,64,0.00,,,0.00,VWS V13.01,2013-02-17 10:05:00,
2013-02-17 05:10:00,29.1,18.5,32.44,SW,230,3.0,11.0,64,0.00,,,0.00,VWS V13.01,2013-02-17 10:10:00,
2013-02-17 05:15:00,28.8,18.2,32.44,WSW,238,3.0,10.0,64,0.00,,,0.00,VWS V13.01,2013-02-17 10:15:00,
2013-02-17 05:20:00,28.7,18.1,32.44,WSW,248,3.0,10.0,64,0.00,,,0.00,VWS V13.01,2013-02-17 10:20:00,
2013-02-17 05:25:00,28.6,18.0,32.44,WSW,246,10.0,10.0,64,0.00,,,0.00,VWS V13.01,2013-02-17 10:25:00,
2013-02-17 05:30:00,28.6,18.0,32.44,WSW,240,1.0,8.0,64,0.00,,,0.00,VWS V13.01,2013-02-17 10:30:00,
2013-02-17 05:35:00,28.6,18.3,32.44,West,273,1.0,7.0,65,0.00,,,0.00,VWS V13.01,2013-02-17 10:35:00,
2013-02-17 05:40:00,28.6,18.3,32.44,WSW,237,9.0,11.0,65,0.00,,,0.00,VWS V13.01,2013-02-17 10:40:00,
2013-02-17 05:45:00,28.6,18.3,32.44,WSW,246,9.0,14.0,65,0.00,,,0.00,VWS V13.01,2013-02-17 10:45:00,
2013-02-17 05:50:00,28.4,17.8,32.44,SW,221,5.0,10.0,64,0.00,,,0.00,VWS V13.01,2013-02-17 10:50:00,
2013-02-17 05:55:00,28.2,17.6,32.44,SW,236,4.0,8.0,64,0.00,,,0.00,VWS V13.01,2013-02-17 10:55:00,
2013-02-17 06:00:00,28.1,17.9,32.44,West,271,4.0,10.0,65,0.00,,,0.00,VWS V13.01,2013-02-17 11:00:00,
2013-02-17 06:05:00,28.0,17.8,32.44,SW,228,3.0,9.0,65,0.00,,,0.00,VWS V13.01,2013-02-17 11:05:00,
2013-02-17 06:10:00,27.9,17.7,32.44,SW,236,3.0,11.0,65,0.00,,,0.00,VWS V13.01,2013-02-17 11:10:00,
2013-02-17 06:15:00,27.9,17.7,32.44,WSW,254,4.0,11.0,65,0.00,,,0.00,VWS V13.01,2013-02-17 11:15:00,
2013-02-17 06:21:00,28.0,18.1,32.44,West,260,7.0,12.0,66,0.00,,,0.00,VWS V13.01,2013-02-17 11:21:00,
2013-02-17 06:25:00,28.1,18.2,32.44,WSW,249,7.0,12.0,66,0.00,,,0.00,VWS V13.01,2013-02-17 11:25:00,
2013-02-17 06:30:00,27.9,18.0,32.44,SW,231,9.0,14.0,66,0.00,,,0.00,VWS V13.01,2013-02-17 11:30:00,
2013-02-17 06:35:00,27.9,18.4,32.44,SW,223,9.0,12.0,67,0.00,,,0.00,VWS V13.01,2013-02-17 11:35:00,
2013-02-17 06:40:00,27.9,18.0,32.44,WSW,238,5.0,11.0,66,0.00,,,0.00,VWS V13.01,2013-02-17 11:40:00,
2013-02-17 06:45:00,27.9,18.4,32.44,SW,235,2.0,11.0,67,0.00,,,0.00,VWS V13.01,2013-02-17 11:45:00,
2013-02-17 06:50:00,27.8,18.3,32.44,WSW,244,5.0,9.0,67,0.00,,,0.00,VWS V13.01,2013-02-17 11:50:00,
2013-02-17 06:55:00,27.9,18.7,32.44,SW,235,5.0,12.0,68,0.00,,,0.00,VWS V13.01,2013-02-17 11:55:00,
2013-02-17 07:00:00,27.9,18.7,32.44,SW,234,4.0,7.0,68,0.00,,,0.00,VWS V13.01,2013-02-17 12:00:00,
2013-02-17 07:05:00,27.9,18.7,32.44,WSW,250,2.0,7.0,68,0.00,,,0.00,VWS V13.01,2013-02-17 12:05:00,
2013-02-17 07:10:00,28.0,18.8,32.44,WSW,244,4.0,9.0,68,0.00,,,0.00,VWS V13.01,2013-02-17 12:10:00,
2013-02-17 07:15:00,28.0,18.8,32.44,SW,219,3.0,7.0,68,0.00,,,0.00,VWS V13.01,2013-02-17 12:15:00,
2013-02-17 07:20:00,28.0,18.8,32.44,WSW,246,4.0,7.0,68,0.00,,,0.00,VWS V13.01,2013-02-17 12:20:00,
2013-02-17 07:26:00,27.9,18.4,32.44,WSW,253,6.0,9.0,67,0.00,,,0.00,VWS V13.01,2013-02-17 12:26:00,
2013-02-17 07:31:00,28.0,18.8,32.44,WSW,245,1.0,10.0,68,0.00,,,0.00,VWS V13.01,2013-02-17 12:31:00,
2013-02-17 07:36:00,28.2,18.7,32.44,WSW,238,5.0,9.0,67,0.00,,,0.00,VWS V13.01,2013-02-17 12:36:00,
2013-02-17 07:41:00,28.3,18.8,32.44,SW,215,0.0,6.0,67,0.00,,,0.00,VWS V13.01,2013-02-17 12:41:00,
2013-02-17 07:46:00,28.7,19.1,32.44,West,264,4.0,9.0,67,0.00,,,0.00,VWS V13.01,2013-02-17 12:46:00,
2013-02-17 07:51:00,28.8,19.2,32.44,WSW,256,5.0,10.0,67,0.00,,,0.00,VWS V13.01,2013-02-17 12:51:00,
2013-02-17 07:56:00,28.8,18.9,32.44,WSW,256,5.0,14.0,66,0.00,,,0.00,VWS V13.01,2013-02-17 12:56:00,
2013-02-17 08:01:00,28.9,19.0,32.44,SW,225,16.0,16.0,66,0.00,,,0.00,VWS V13.01,2013-02-17 13:01:00,
2013-02-17 08:06:00,29.1,19.2,32.44,WSW,251,14.0,15.0,66,0.00,,,0.00,VWS V13.01,2013-02-17 13:06:00,
2013-02-17 08:11:00,29.2,19.3,32.44,SW,220,5.0,15.0,66,0.00,,,0.00,VWS V13.01,2013-02-17 13:11:00,
2013-02-17 08:16:00,29.3,19.4,32.44,WNW,294,6.0,17.0,66,0.00,,,0.00,VWS V13.01,2013-02-17 13:16:00,
2013-02-17 08:21:00,29.7,19.8,32.44,West,259,10.0,11.0,66,0.00,,,0.00,VWS V13.01,2013-02-17 13:21:00,
2013-02-17 08:26:00,29.6,19.3,32.44,WSW,258,7.0,18.0,65,0.00,,,0.00,VWS V13.01,2013-02-17 13:26:00,
2013-02-17 08:31:00,29.6,19.3,32.44,SW,219,10.0,16.0,65,0.00,,,0.00,VWS V13.01,2013-02-17 13:31:00,
2013-02-17 08:36:00,29.6,18.9,32.44,WSW,252,1.0,19.0,64,0.00,,,0.00,VWS V13.01,2013-02-17 13:36:00,
2013-02-17 08:41:00,29.8,19.5,32.44,SW,232,11.0,15.0,65,0.00,,,0.00,VWS V13.01,2013-02-17 13:41:00,
2013-02-17 08:46:00,29.8,19.1,32.44,SW,236,6.0,19.0,64,0.00,,,0.00,VWS V13.01,2013-02-17 13:46:00,
2013-02-17 08:51:00,29.7,18.3,32.44,SW,218,6.0,17.0,62,0.00,,,0.00,VWS V13.01,2013-02-17 13:51:00,
2013-02-17 08:56:00,30.1,18.7,32.44,WSW,256,3.0,18.0,62,0.00,,,0.00,VWS V13.01,2013-02-17 13:56:00,
2013-02-17 09:01:00,30.1,17.5,32.44,SW,235,12.0,17.0,59,0.00,,,0.00,VWS V13.01,2013-02-17 14:01:00,
2013-02-17 09:06:00,30.0,17.0,32.44,SW,230,14.0,24.0,58,0.00,,,0.00,VWS V13.01,2013-02-17 14:06:00,
2013-02-17 09:11:00,30.4,17.4,32.44,West,261,1.0,18.0,58,0.00,,,0.00,VWS V13.01,2013-02-17 14:11:00,
2013-02-17 09:16:00,30.8,17.4,32.44,WSW,242,18.0,24.0,57,0.00,,,0.00,VWS V13.01,2013-02-17 14:16:00,
2013-02-17 09:21:00,30.6,17.2,32.44,WNW,288,15.0,21.0,57,0.00,,,0.00,VWS V13.01,2013-02-17 14:21:00,
2013-02-17 09:26:00,30.7,17.7,32.44,SW,222,5.0,15.0,58,0.00,,,0.00,VWS V13.01,2013-02-17 14:26:00,
2013-02-17 09:31:00,31.1,17.7,32.44,WSW,253,15.0,16.0,57,0.00,,,0.00,VWS V13.01,2013-02-17 14:31:00,
2013-02-17 09:36:00,31.2,17.8,32.44,WSW,256,6.0,13.0,57,0.00,,,0.00,VWS V13.01,2013-02-17 14:36:00,
2013-02-17 09:41:00,31.1,16.8,32.44,West,267,16.0,18.0,55,0.00,,,0.00,VWS V13.01,2013-02-17 14:41:00,
2013-02-17 09:46:00,31.1,17.2,32.44,NW,313,12.0,23.0,56,0.00,,,0.00,VWS V13.01,2013-02-17 14:46:00,
2013-02-17 09:51:00,31.2,16.9,32.44,WSW,249,13.0,25.0,55,0.00,,,0.00,VWS V13.01,2013-02-17 14:51:00,
2013-02-17 09:56:00,31.0,16.7,32.44,SSW,202,12.0,19.0,55,0.00,,,0.00,VWS V13.01,2013-02-17 14:56:00,
2013-02-17 10:01:00,30.8,16.1,32.44,West,275,7.0,23.0,54,0.00,,,0.00,VWS V13.01,2013-02-17 15:01:00,
2013-02-17 10:06:00,30.7,16.0,32.44,West,259,10.0,21.0,54,0.00,,,0.00,VWS V13.01,2013-02-17 15:06:00,
2013-02-17 10:11:00,31.2,16.5,32.44,West,263,7.0,18.0,54,0.00,,,0.00,VWS V13.01,2013-02-17 15:11:00,
2013-02-17 10:16:00,31.2,16.5,32.44,West,269,7.0,16.0,54,0.00,,,0.00,VWS V13.01,2013-02-17 15:16:00,
2013-02-17 10:21:00,31.0,15.9,32.44,WSW,248,13.0,17.0,53,0.00,,,0.00,VWS V13.01,2013-02-17 15:21:00,
2013-02-17 10:26:00,30.8,15.3,32.44,WSW,248,13.0,22.0,52,0.00,,,0.00,VWS V13.01,2013-02-17 15:26:00,
2013-02-17 10:31:00,31.0,15.9,32.44,WSW,256,13.0,17.0,53,0.00,,,0.00,VWS V13.01,2013-02-17 15:31:00,
2013-02-17 10:36:00,31.6,16.0,32.44,WSW,248,16.0,19.0,52,0.00,,,0.00,VWS V13.01,2013-02-17 15:36:00,
2013-02-17 10:41:00,31.4,15.4,32.44,West,265,5.0,23.0,51,0.00,,,0.00,VWS V13.01,2013-02-17 15:41:00,
2013-02-17 10:46:00,31.5,15.9,32.44,WNW,282,15.0,19.0,52,0.00,,,0.00,VWS V13.01,2013-02-17 15:46:00,
2013-02-17 10:51:00,31.2,16.1,32.44,WSW,245,19.0,19.0,53,0.00,,,0.00,VWS V13.01,2013-02-17 15:51:00,
2013-02-17 10:56:00,30.6,15.1,32.44,SW,219,7.0,23.0,52,0.00,,,0.00,VWS V13.01,2013-02-17 15:56:00,
2013-02-17 11:01:00,30.8,15.7,32.44,West,260,6.0,16.0,53,0.00,,,0.00,VWS V13.01,2013-02-17 16:01:00,
2013-02-17 11:06:00,31.2,17.3,32.44,SW,219,12.0,15.0,56,0.00,,,0.00,VWS V13.01,2013-02-17 16:06:00,
2013-02-17 11:11:00,30.9,17.1,32.44,West,265,6.0,15.0,56,0.00,,,0.00,VWS V13.01,2013-02-17 16:11:00,
2013-02-17 11:16:00,31.0,16.7,32.44,WSW,252,6.0,22.0,55,0.00,,,0.00,VWS V13.01,2013-02-17 16:16:00,
2013-02-17 11:21:00,31.2,16.5,32.44,West,263,17.0,24.0,54,0.00,,,0.00,VWS V13.01,2013-02-17 16:21:00,
2013-02-17 11:26:00,30.8,16.5,32.44,WSW,252,9.0,24.0,55,0.00,,,0.00,VWS V13.01,2013-02-17 16:26:00,
2013-02-17 11:31:00,31.5,17.2,32.44,WNW,282,12.0,19.0,55,0.00,,,0.00,VWS V13.01,2013-02-17 16:31:00,
2013-02-17 11:36:00,31.9,17.2,32.44,West,266,10.0,19.0,54,0.00,,,0.00,VWS V13.01,2013-02-17 16:36:00,
2013-02-17 11:41:00,31.4,16.3,32.44,WSW,252,23.0,23.0,53,0.00,,,0.00,VWS V13.01,2013-02-17 16:41:00,
2013-02-17 11:46:00,31.7,16.5,32.44,WSW,250,23.0,23.0,53,0.00,,,0.00,VWS V13.01,2013-02-17 16:46:00,
2013-02-17 11:51:00,31.5,15.9,32.44,WSW,250,2.0,23.0,52,0.00,,,0.00,VWS V13.01,2013-02-17 16:51:00,
2013-02-17 11:56:00,32.1,16.0,32.44,West,271,17.0,24.0,51,0.00,,,0.00,VWS V13.01,2013-02-17 16:56:00,
2013-02-17 12:01:00,32.6,16.0,32.44,West,259,10.0,16.0,50,0.00,,,0.00,VWS V13.01,2013-02-17 17:01:00,
2013-02-17 12:06:00,32.2,14.7,32.44,WSW,249,5.0,19.0,48,0.00,,,0.00,VWS V13.01,2013-02-17 17:06:00,
2013-02-17 12:11:00,32.0,15.0,32.44,WSW,256,10.0,22.0,49,0.00,,,0.00,VWS V13.01,2013-02-17 17:11:00,
2013-02-17 12:16:00,31.6,15.1,32.44,West,268,14.0,20.0,50,0.00,,,0.00,VWS V13.01,2013-02-17 17:16:00,
2013-02-17 12:21:00,31.8,15.3,32.44,West,279,7.0,18.0,50,0.00,,,0.00,VWS V13.01,2013-02-17 17:21:00,
2013-02-17 12:26:00,32.4,14.9,32.44,WSW,252,9.0,15.0,48,0.00,,,0.00,VWS V13.01,2013-02-17 17:26:00,
2013-02-17 12:31:00,32.0,15.0,32.44,West,270,22.0,22.0,49,0.00,,,0.00,VWS V13.01,2013-02-17 17:31:00,
2013-02-17 12:36:00,31.3,14.8,32.44,SW,217,5.0,24.0,50,0.00,,,0.00,VWS V13.01,2013-02-17 17:36:00,
2013-02-17 12:41:00,32.1,15.1,32.44,WNW,296,5.0,19.0,49,0.00,,,0.00,VWS V13.01,2013-02-17 17:41:00,
2013-02-17 12:46:00,32.0,14.6,32.44,NW,313,6.0,20.0,48,0.00,,,0.00,VWS V13.01,2013-02-17 17:46:00,
2013-02-17 12:51:00,32.7,15.7,32.44,West,271,11.0,20.0,49,0.00,,,0.00,VWS V13.01,2013-02-17 17:51:00,
2013-02-17 12:56:00,33.0,15.5,32.44,SW,217,4.0,16.0,48,0.00,,,0.00,VWS V13.01,2013-02-17 17:56:00,
2013-02-17 13:01:00,33.0,15.5,32.44,SW,216,11.0,23.0,48,0.00,,,0.00,VWS V13.01,2013-02-17 18:01:00,
2013-02-17 13:06:00,32.2,14.2,32.44,WSW,239,8.0,21.0,47,0.00,,,0.00,VWS V13.01,2013-02-17 18:06:00,
2013-02-17 13:11:00,32.5,14.0,32.44,South,186,5.0,19.0,46,0.00,,,0.00,VWS V13.01,2013-02-17 18:11:00,
2013-02-17 13:16:00,32.6,14.1,32.44,SW,227,14.0,21.0,46,0.00,,,0.00,VWS V13.01,2013-02-17 18:16:00,
2013-02-17 13:21:00,32.6,14.6,32.44,SW,221,6.0,21.0,47,0.00,,,0.00,VWS V13.01,2013-02-17 18:21:00,
2013-02-17 13:26:00,33.0,14.5,32.44,West,269,7.0,19.0,46,0.00,,,0.00,VWS V13.01,2013-02-17 18:26:00,
2013-02-17 13:31:00,32.5,13.0,32.44,SSW,198,10.0,22.0,44,0.00,,,0.00,VWS V13.01,2013-02-17 18:31:00,
2013-02-17 13:36:00,32.2,13.3,32.44,SW,216,19.0,25.0,45,0.00,,,0.00,VWS V13.01,2013-02-17 18:36:00,
2013-02-17 13:41:00,31.6,12.7,32.44,SSW,211,7.0,24.0,45,0.00,,,0.00,VWS V13.01,2013-02-17 18:41:00,
2013-02-17 13:46:00,31.8,13.9,32.44,WSW,242,9.0,22.0,47,0.00,,,0.00,VWS V13.01,2013-02-17 18:46:00,
2013-02-17 13:51:00,31.5,13.6,32.44,SSW,211,9.0,20.0,47,0.00,,,0.00,VWS V13.01,2013-02-17 18:51:00,
2013-02-17 13:56:00,31.8,13.9,32.44,West,269,6.0,20.0,47,0.00,,,0.00,VWS V13.01,2013-02-17 18:56:00,
2013-02-17 14:01:00,32.5,14.0,32.44,SW,229,9.0,16.0,46,0.00,,,0.00,VWS V13.01,2013-02-17 19:01:00,
2013-02-17 14:06:00,33.1,14.6,32.44,West,263,6.0,16.0,46,0.00,,,0.00,VWS V13.01,2013-02-17 19:06:00,
2013-02-17 14:11:00,32.6,13.1,32.44,SW,236,11.0,23.0,44,0.00,,,0.00,VWS V13.01,2013-02-17 19:11:00,
2013-02-17 14:16:00,32.0,13.1,32.44,SW,219,11.0,26.0,45,0.00,,,0.00,VWS V13.01,2013-02-17 19:16:00,
2013-02-17 14:21:00,32.2,13.3,32.44,WNW,288,6.0,23.0,45,0.00,,,0.00,VWS V13.01,2013-02-17 19:21:00,
2013-02-17 14:26:00,32.5,14.0,32.44,West,261,12.0,19.0,46,0.00,,,0.00,VWS V13.01,2013-02-17 19:26:00,
2013-02-17 14:31:00,32.1,13.2,32.44,WNW,288,10.0,24.0,45,0.00,,,0.00,VWS V13.01,2013-02-17 19:31:00,
2013-02-17 14:36:00,32.0,14.1,32.44,WSW,240,6.0,20.0,47,0.00,,,0.00,VWS V13.01,2013-02-17 19:36:00,
2013-02-17 14:41:00,32.1,13.7,32.44,SW,236,9.0,24.0,46,0.00,,,0.00,VWS V13.01,2013-02-17 19:41:00,
2013-02-17 14:46:00,31.6,13.7,32.44,NW,307,9.0,22.0,47,0.00,,,0.00,VWS V13.01,2013-02-17 19:46:00,
2013-02-17 14:51:00,31.5,13.1,32.44,WSW,253,17.0,28.0,46,0.00,,,0.00,VWS V13.01,2013-02-17 19:51:00,
2013-02-17 14:56:00,31.8,12.9,32.44,West,262,13.0,24.0,45,0.00,,,0.00,VWS V13.01,2013-02-17 19:56:00,
2013-02-17 15:01:00,31.8,13.4,32.44,WSW,245,7.0,16.0,46,0.00,,,0.00,VWS V13.01,2013-02-17 20:01:00,
2013-02-17 15:06:00,32.4,12.9,32.44,SW,236,14.0,21.0,44,0.00,,,0.00,VWS V13.01,2013-02-17 20:06:00,
2013-02-17 15:11:00,31.7,13.3,32.44,SW,225,10.0,26.0,46,0.00,,,0.00,VWS V13.01,2013-02-17 20:11:00,
2013-02-17 15:16:00,32.0,13.6,32.44,WSW,249,7.0,18.0,46,0.00,,,0.00,VWS V13.01,2013-02-17 20:16:00,
2013-02-17 15:21:00,32.5,14.0,32.44,SW,232,10.0,18.0,46,0.00,,,0.00,VWS V13.01,2013-02-17 20:21:00,
2013-02-17 15:26:00,33.1,13.6,32.44,SW,221,5.0,15.0,44,0.00,,,0.00,VWS V13.01,2013-02-17 20:26:00,
2013-02-17 15:31:00,32.8,13.8,32.44,WSW,257,10.0,18.0,45,0.00,,,0.00,VWS V13.01,2013-02-17 20:31:00,
2013-02-17 15:36:00,32.9,14.4,32.44,WSW,257,12.0,19.0,46,0.00,,,0.00,VWS V13.01,2013-02-17 20:36:00,
2013-02-17 15:41:00,32.9,13.4,32.44,SW,236,13.0,21.0,44,0.00,,,0.00,VWS V13.01,2013-02-17 20:41:00,
2013-02-17 15:46:00,32.2,13.3,32.44,West,276,4.0,20.0,45,0.00,,,0.00,VWS V13.01,2013-02-17 20:46:00,
2013-02-17 15:51:00,31.5,12.6,32.44,West,259,11.0,23.0,45,0.00,,,0.00,VWS V13.01,2013-02-17 20:51:00,
2013-02-17 15:56:00,31.7,13.8,32.44,WNW,303,7.0,28.0,47,0.00,,,0.00,VWS V13.01,2013-02-17 20:56:00,
2013-02-17 16:01:00,31.7,13.3,32.44,WSW,256,4.0,25.0,46,0.00,,,0.00,VWS V13.01,2013-02-17 21:01:00,
2013-02-17 16:06:00,31.8,13.4,32.44,SW,227,9.0,18.0,46,0.00,,,0.00,VWS V13.01,2013-02-17 21:06:00,
2013-02-17 16:11:00,31.5,12.6,32.44,SW,231,5.0,23.0,45,0.00,,,0.00,VWS V13.01,2013-02-17 21:11:00,
2013-02-17 16:16:00,31.2,12.4,32.44,West,262,10.0,25.0,45,0.00,,,0.00,VWS V13.01,2013-02-17 21:16:00,
2013-02-17 16:21:00,31.0,11.7,32.44,SW,218,6.0,31.0,44,0.00,,,0.00,VWS V13.01,2013-02-17 21:21:00,
2013-02-17 16:26:00,30.9,11.6,32.44,SSW,209,10.0,19.0,44,0.00,,,0.00,VWS V13.01,2013-02-17 21:26:00,
2013-02-17 16:31:00,30.9,11.6,32.44,SSW,211,11.0,14.0,44,0.00,,,0.00,VWS V13.01,2013-02-17 21:31:00,
2013-02-17 16:36:00,31.0,11.7,32.44,SW,231,12.0,20.0,44,0.00,,,0.00,VWS V13.01,2013-02-17 21:36:00,
2013-02-17 16:41:00,31.0,11.7,32.44,South,173,4.0,14.0,44,0.00,,,0.00,VWS V13.01,2013-02-17 21:41:00,
2013-02-17 16:46:00,30.9,12.1,32.44,SSE,161,3.0,14.0,45,0.00,,,0.00,VWS V13.01,2013-02-17 21:46:00,
2013-02-17 16:51:00,30.7,11.9,32.44,SW,227,11.0,14.0,45,0.00,,,0.00,VWS V13.01,2013-02-17 21:51:00,
2013-02-17 16:56:00,30.7,11.4,32.44,WSW,250,4.0,18.0,44,0.00,,,0.00,VWS V13.01,2013-02-17 21:56:00,
2013-02-17 17:01:00,30.6,11.3,32.44,South,186,15.0,25.0,44,0.00,,,0.00,VWS V13.01,2013-02-17 22:01:00,
2013-02-17 17:06:00,30.5,11.7,32.44,SW,227,4.0,17.0,45,0.00,,,0.00,VWS V13.01,2013-02-17 22:06:00,
2013-02-17 17:11:00,30.6,11.3,32.44,SSW,205,4.0,16.0,44,0.00,,,0.00,VWS V13.01,2013-02-17 22:11:00,
2013-02-17 17:16:00,30.7,11.9,32.44,West,259,6.0,11.0,45,0.00,,,0.00,VWS V13.01,2013-02-17 22:16:00,
2013-02-17 17:21:00,30.4,11.6,32.44,SW,223,8.0,24.0,45,0.00,,,0.00,VWS V13.01,2013-02-17 22:21:00,
2013-02-17 17:26:00,30.3,11.0,32.44,WSW,256,4.0,21.0,44,0.00,,,0.00,VWS V13.01,2013-02-17 22:26:00,
2013-02-17 17:31:00,30.2,10.9,32.44,SSW,205,4.0,16.0,44,0.00,,,0.00,VWS V13.01,2013-02-17 22:31:00,
2013-02-17 17:36:00,29.8,10.6,32.44,SW,232,10.0,24.0,44,0.00,,,0.00,VWS V13.01,2013-02-17 22:36:00,
2013-02-17 17:41:00,29.6,10.4,32.44,SW,236,11.0,22.0,44,0.00,,,0.00,VWS V13.01,2013-02-17 22:41:00,
2013-02-17 17:46:00,29.4,10.7,32.44,West,259,9.0,19.0,45,0.00,,,0.00,VWS V13.01,2013-02-17 22:46:00,
2013-02-17 17:51:00,29.4,11.2,32.44,WSW,243,5.0,15.0,46,0.00,,,0.00,VWS V13.01,2013-02-17 22:51:00,
2013-02-17 17:56:00,29.1,10.9,32.44,SW,233,11.0,18.0,46,0.00,,,0.00,VWS V13.01,2013-02-17 22:56:00,
2013-02-17 18:01:00,29.0,10.8,32.44,SW,234,9.0,23.0,46,0.00,,,0.00,VWS V13.01,2013-02-17 23:01:00,
2013-02-17 18:06:00,28.9,10.7,32.44,West,268,6.0,14.0,46,0.00,,,0.00,VWS V13.01,2013-02-17 23:06:00,
2013-02-17 18:11:00,28.8,11.1,32.44,SW,230,7.0,12.0,47,0.00,,,0.00,VWS V13.01,2013-02-17 23:11:00,
2013-02-17 18:16:00,28.8,11.1,32.44,SW,223,7.0,13.0,47,0.00,,,0.00,VWS V13.01,2013-02-17 23:16:00,
2013-02-17 18:21:00,28.8,11.1,32.44,SW,220,6.0,19.0,47,0.00,,,0.00,VWS V13.01,2013-02-17 23:21:00,
2013-02-17 18:26:00,28.7,10.6,32.44,SW,229,5.0,21.0,46,0.00,,,0.00,VWS V13.01,2013-02-17 23:26:00,
2013-02-17 18:31:00,28.7,10.6,32.44,WSW,241,6.0,16.0,46,0.00,,,0.00,VWS V13.01,2013-02-17 23:31:00,
2013-02-17 18:36:00,28.8,11.1,32.44,West,259,12.0,20.0,47,0.00,,,0.00,VWS V13.01,2013-02-17 23:36:00,
2013-02-17 18:41:00,28.7,11.0,32.44,WSW,257,14.0,20.0,47,0.00,,,0.00,VWS V13.01,2013-02-17 23:41:00,
2013-02-17 18:46:00,28.7,10.6,32.44,SW,224,9.0,20.0,46,0.00,,,0.00,VWS V13.01,2013-02-17 23:46:00,
2013-02-17 18:51:00,28.7,10.6,32.44,WSW,242,9.0,15.0,46,0.00,,,0.00,VWS V13.01,2013-02-17 23:51:00,
2013-02-17 18:56:00,28.7,10.6,32.44,SW,223,4.0,18.0,46,0.00,,,0.00,VWS V13.01,2013-02-17 23:56:00,
2013-02-17 19:01:00,28.6,10.5,32.44,SW,229,13.0,17.0,46,0.00,,,0.00,VWS V13.01,2013-02-18 00:01:00,
2013-02-17 19:06:00,28.7,10.6,32.44,SW,220,10.0,16.0,46,0.00,,,0.00,VWS V13.01,2013-02-18 00:06:00,
2013-02-17 19:11:00,28.6,10.9,32.44,SW,233,5.0,20.0,47,0.00,,,0.00,VWS V13.01,2013-02-18 00:11:00,
2013-02-17 19:16:00,28.6,10.5,32.44,WSW,244,6.0,17.0,46,0.00,,,0.00,VWS V13.01,2013-02-18 00:16:00,
2013-02-17 19:21:00,28.6,10.9,32.44,WSW,249,4.0,23.0,47,0.00,,,0.00,VWS V13.01,2013-02-18 00:21:00,
2013-02-17 19:26:00,28.5,10.9,32.44,WNW,289,10.0,17.0,47,0.00,,,0.00,VWS V13.01,2013-02-18 00:26:00,
2013-02-17 19:31:00,28.5,10.9,32.44,SW,232,12.0,15.0,47,0.00,,,0.00,VWS V13.01,2013-02-18 00:31:00,
2013-02-17 19:36:00,28.3,10.7,32.44,SW,231,7.0,14.0,47,0.00,,,0.00,VWS V13.01,2013-02-18 00:36:00,
2013-02-17 19:41:00,28.3,11.6,32.44,SW,222,4.0,13.0,49,0.00,,,0.00,VWS V13.01,2013-02-18 00:41:00,
2013-02-17 19:46:00,28.3,11.6,32.44,West,268,5.0,15.0,49,0.00,,,0.00,VWS V13.01,2013-02-18 00:46:00,
2013-02-17 19:51:00,28.2,11.5,32.44,SW,235,5.0,14.0,49,0.00,,,0.00,VWS V13.01,2013-02-18 00:51:00,
2013-02-17 19:56:00,28.4,11.7,32.44,WNW,289,11.0,23.0,49,0.00,,,0.00,VWS V13.01,2013-02-18 00:56:00,
2013-02-17 20:01:00,28.4,12.1,32.44,West,279,2.0,24.0,50,0.00,,,0.00,VWS V13.01,2013-02-18 01:01:00,
2013-02-17 20:06:00,28.3,12.1,32.44,WSW,250,12.0,22.0,50,0.00,,,0.00,VWS V13.01,2013-02-18 01:06:00,
2013-02-17 20:11:00,28.3,12.1,32.44,SW,218,16.0,23.0,50,0.00,,,0.00,VWS V13.01,2013-02-18 01:11:00,
2013-02-17 20:16:00,28.2,12.0,32.44,WSW,238,10.0,22.0,50,0.00,,,0.00,VWS V13.01,2013-02-18 01:16:00,
2013-02-17 20:21:00,28.2,12.4,32.44,SSW,202,7.0,28.0,51,0.00,,,0.00,VWS V13.01,2013-02-18 01:21:00,
2013-02-17 20:26:00,28.1,12.3,32.44,SSW,213,10.0,22.0,51,0.00,,,0.00,VWS V13.01,2013-02-18 01:26:00,
2013-02-17 20:31:00,28.0,12.2,32.44,WSW,252,10.0,16.0,51,0.00,,,0.00,VWS V13.01,2013-02-18 01:31:00,
2013-02-17 20:36:00,28.0,12.2,32.44,WSW,254,15.0,25.0,51,0.00,,,0.00,VWS V13.01,2013-02-18 01:36:00,
2013-02-17 20:41:00,27.8,12.5,32.44,SW,236,9.0,26.0,52,0.00,,,0.00,VWS V13.01,2013-02-18 01:41:00,
2013-02-17 20:46:00,27.8,12.5,32.44,SW,226,11.0,21.0,52,0.00,,,0.00,VWS V13.01,2013-02-18 01:46:00,
2013-02-17 20:51:00,27.7,12.4,32.44,SW,232,18.0,19.0,52,0.00,,,0.00,VWS V13.01,2013-02-18 01:51:00,
2013-02-17 20:56:00,27.7,12.8,32.44,SW,226,15.0,18.0,53,0.00,,,0.00,VWS V13.01,2013-02-18 01:56:00,
2013-02-17 21:01:00,27.7,13.2,32.44,WSW,250,12.0,18.0,54,0.00,,,0.00,VWS V13.01,2013-02-18 02:01:00,
2013-02-17 21:06:00,27.7,12.8,32.44,West,259,7.0,16.0,53,0.00,,,0.00,VWS V13.01,2013-02-18 02:06:00,
2013-02-17 21:11:00,27.7,13.2,32.44,SW,216,5.0,13.0,54,0.00,,,0.00,VWS V13.01,2013-02-18 02:11:00,
2013-02-17 21:16:00,27.6,12.7,32.44,West,270,11.0,13.0,53,0.00,,,0.00,VWS V13.01,2013-02-18 02:16:00,
2013-02-17 21:21:00,27.6,12.3,32.44,WSW,254,10.0,19.0,52,0.00,,,0.00,VWS V13.01,2013-02-18 02:21:00,
2013-02-17 21:26:00,27.5,12.6,32.44,WNW,296,2.0,19.0,53,0.00,,,0.00,VWS V13.01,2013-02-18 02:26:00,
2013-02-17 21:31:00,27.4,12.1,32.44,West,273,19.0,20.0,52,0.00,,,0.00,VWS V13.01,2013-02-18 02:31:00,
2013-02-17 21:36:00,27.3,12.4,32.44,WSW,250,4.0,21.0,53,0.00,,,0.00,VWS V13.01,2013-02-18 02:36:00,
2013-02-17 21:41:00,27.4,12.5,32.44,WSW,241,12.0,17.0,53,0.00,,,0.00,VWS V13.01,2013-02-18 02:41:00,
2013-02-17 21:46:00,27.4,13.0,32.44,SW,236,5.0,15.0,54,0.00,,,0.00,VWS V13.01,2013-02-18 02:46:00,
2013-02-17 21:51:00,27.3,12.4,32.44,SW,217,9.0,14.0,53,0.00,,,0.00,VWS V13.01,2013-02-18 02:51:00,
2013-02-17 21:56:00,27.1,12.2,32.44,West,263,8.0,21.0,53,0.00,,,0.00,VWS V13.01,2013-02-18 02:56:00,
2013-02-17 22:01:00,27.1,12.2,32.44,SW,232,6.0,19.0,53,0.00,,,0.00,VWS V13.01,2013-02-18 03:01:00,
2013-02-17 22:06:00,27.1,12.7,32.44,NW,325,4.0,13.0,54,0.00,,,0.00,VWS V13.01,2013-02-18 03:06:00,
2013-02-17 22:11:00,27.1,12.7,32.44,WSW,248,4.0,13.0,54,0.00,,,0.00,VWS V13.01,2013-02-18 03:11:00,
2013-02-17 22:16:00,26.9,12.5,32.44,West,271,3.0,20.0,54,0.00,,,0.00,VWS V13.01,2013-02-18 03:16:00,
2013-02-17 22:21:00,27.1,13.5,32.44,SW,234,2.0,10.0,56,0.00,,,0.00,VWS V13.01,2013-02-18 03:21:00,
2013-02-17 22:26:00,27.0,13.0,32.44,West,271,4.0,15.0,55,0.00,,,0.00,VWS V13.01,2013-02-18 03:26:00,
2013-02-17 22:31:00,26.9,12.9,32.44,SW,231,2.0,13.0,55,0.00,,,0.00,VWS V13.01,2013-02-18 03:31:00,
2013-02-17 22:36:00,26.9,12.9,32.44,SW,217,9.0,10.0,55,0.00,,,0.00,VWS V13.01,2013-02-18 03:36:00,
2013-02-17 22:41:00,26.9,13.3,32.44,SW,223,2.0,9.0,56,0.00,,,0.00,VWS V13.01,2013-02-18 03:41:00,
2013-02-17 22:46:00,26.7,12.7,32.44,WSW,244,5.0,14.0,55,0.00,,,0.00,VWS V13.01,2013-02-18 03:46:00,
2013-02-17 22:51:00,26.6,13.4,32.44,WSW,245,4.0,9.0,57,0.00,,,0.00,VWS V13.01,2013-02-18 03:51:00,
2013-02-17 22:56:00,26.7,13.1,32.44,SW,227,9.0,17.0,56,0.00,,,0.00,VWS V13.01,2013-02-18 03:56:00,
2013-02-17 23:01:00,26.7,13.1,32.44,SW,234,2.0,11.0,56,0.00,,,0.00,VWS V13.01,2013-02-18 04:01:00,
2013-02-17 23:06:00,26.6,13.0,32.44,SW,219,3.0,11.0,56,0.00,,,0.00,VWS V13.01,2013-02-18 04:06:00,
2013-02-17 23:11:00,26.6,13.4,32.44,West,267,15.0,15.0,57,0.00,,,0.00,VWS V13.01,2013-02-18 04:11:00,
2013-02-17 23:16:00,26.7,13.1,32.44,WSW,238,6.0,15.0,56,0.00,,,0.00,VWS V13.01,2013-02-18 04:16:00,
2013-02-17 23:21:00,26.7,13.1,32.44,West,266,12.0,14.0,56,0.00,,,0.00,VWS V13.01,2013-02-18 04:21:00,
2013-02-17 23:26:00,26.6,13.4,32.44,SSE,163,4.0,12.0,57,0.00,,,0.00,VWS V13.01,2013-02-18 04:26:00,
2013-02-17 23:31:00,26.6,13.8,32.44,SW,234,6.0,13.0,58,0.00,,,0.00,VWS V13.01,2013-02-18 04:31:00,
2013-02-17 23:36:00,26.5,13.3,32.44,WSW,241,5.0,12.0,57,0.00,,,0.00,VWS V13.01,2013-02-18 04:36:00,
2013-02-17 23:41:00,26.5,13.7,32.44,SW,217,2.0,12.0,58,0.00,,,0.00,VWS V13.01,2013-02-18 04:41:00,
2013-02-17 23:46:00,26.5,13.3,32.44,SSW,209,6.0,11.0,57,0.00,,,0.00,VWS V13.01,2013-02-18 04:46:00,
2013-02-17 23:51:00,26.5,14.1,32.44,WSW,242,6.0,14.0,59,0.00,,,0.00,VWS V13.01,2013-02-18 04:51:00,
2013-02-17 23:56:00,26.3,13.6,32.44,SW,229,3.0,14.0,58,0.00,,,0.00,VWS V13.01,2013-02-18 04:56:00,